Home > Weather > Brăila > Past weeks

Flag for Romania Past Weather in Brăila, Romania — Yesterday and Last 2 Weeks

Now
75 °F

Passing clouds.


Feels Like: 77 °F
Forecast: 68 / 92 °F
Wind: 2 mph from North

Location: Galati

Current Time: Jul 24, 2016 at 9:55:38 AM

Latest Report: Jul 24, 2016 at 9:00 AM


Visibility: 13 mi

Pressure: 30.01 "Hg

Humidity: 58%

Dew Point: 59 °F

Location of BrăilaLocation

Past Weather in Brăila — Graph

°F

Brăila Temperature Yesterday

Maximum temperature yesterday: 91 °F (at 6:00 PM)
Minimum temperature yesterday: 64 °F (at 7:00 AM)
Average temperature yesterday: 78 °F

High & Low Weather Summary for the Past Weeks

 TemperatureHumidityPressure
High92 °F (Jul 14, 5:00 PM)98% (Jul 14, 8:00 AM)30.09 "Hg (Jul 14, 8:00 AM)
Low60 °F (Jul 22, 6:00 AM)18% (Jul 22, 5:00 PM)29.72 "Hg (Jul 17, 7:00 PM)
Average75 °F56%29.93 "Hg
* Reported Jul 9 8:00 AM — Jul 24 8:00 AM, Brăila, Weather by CustomWeather, © 2016

Note: Actual official high and low records may vary slightly from our data, if they occured in-between our weather recording intervals... More about our weather records

Advertising

Brăila Weather History for the Previous 24 Hours

Scroll right to see more
 ConditionsComfort  
Time TempWeatherWind HumidityBarometerVisibility
8:00 AM
Sun, Jul 24
72 °FPassing clouds.2 mph59%30.01 "Hg12 mi
7:00 AM70 °FPassing clouds.2 mph61%30.00 "Hg12 mi
6:00 AM70 °FPassing clouds.2 mph59%30.00 "Hg12 mi
5:00 AM69 °FPassing clouds.2 mph59%30.00 "Hg12 mi
4:00 AM71 °FPassing clouds.1 mph54%29.99 "Hg12 mi
3:00 AM73 °FPassing clouds.2 mph43%29.99 "Hg12 mi
2:00 AM76 °FPassing clouds.2 mph38%29.98 "Hg12 mi
1:00 AM77 °FPassing clouds.2 mph41%29.97 "Hg12 mi
10:00 PM
Sat, Jul 23
81 °FPassing clouds.2 mph37%29.95 "Hg12 mi
9:00 PM83 °FPassing clouds.2 mph35%29.94 "Hg12 mi
8:00 PM85 °FPassing clouds.No wind36%29.93 "Hg12 mi
7:00 PM91 °FPassing clouds.2 mph27%29.93 "Hg12 mi
6:00 PM91 °FPassing clouds.1 mph26%29.93 "Hg12 mi
5:00 PM90 °FPassing clouds.3 mph24%29.95 "Hg12 mi
4:00 PM90 °FPassing clouds.3 mph30%29.96 "Hg12 mi
3:00 PM87 °FPassing clouds.2 mph31%29.98 "Hg12 mi
2:00 PM88 °FPassing clouds.2 mph32%29.98 "Hg12 mi
1:00 PM85 °FSunny.2 mph34%30.00 "Hg12 mi
12:00 PM83 °FSunny.1 mph42%30.01 "Hg12 mi
11:00 AM79 °FSunny.2 mph54%30.01 "Hg12 mi
10:00 AM74 °FSunny.2 mph59%30.00 "Hg12 mi
9:00 AM70 °FSunny.2 mph62%30.01 "Hg12 mi
Weather by CustomWeather, © 2016

See weather overviewHow to use our weather pages